Regional Weather Roundup
Issued by NWS

Home | Current Version | Previous Version | Text Only | Print | Product List | Glossary Off
Versions: 1 2 3 4 5 6 7 8 9 10 11 12 13 14 15 16 17 18 19 20 21 22 23 24 25 26 27 28 29 30 31 32 33 34 35 36 37 38 39 40 41 42 43 44 45 46 47 48 49 50

000
ASUS43 KDTX 200501
RWRMI
MICHIGAN HOURLY REGIONAL WEATHER ROUNDUP
NATIONAL WEATHER SERVICE DETROIT/PONTIAC MI
100 AM EDT SAT SEP 20 2014

NOTE: "FAIR" INDICATES FEW OR NO CLOUDS BELOW 12,000 FEET WITH NO
SIGNIFICANT WEATHER AND/OR OBSTRUCTION TO VISIBILITY.

MIZ047>049-052>055-059>063-066>070-074>076-081>083-200600-
SOUTHEAST LOWER MICHIGAN

CITY           SKY/WX    TMP DP  RH WIND       PRES   REMARKS
ADRIAN         CLEAR     51  49  92 W3        30.04F
ALMA           PTCLDY    57  49  77 S7        29.96F
ANN ARBOR      PTCLDY    45  44  97 W5        30.03F FOG
BAD AXE        PTCLDY    55  52  91 S15G22    29.98F
CARO           PTCLDY    54  50  85 S8        29.98F
DETROIT CITY   PTCLDY    57  52  83 S5        30.03F
DETROIT        PTCLDY    53  51  93 S6        30.03F
FLINT          PTCLDY    57  51  80 S8        30.01F
GROSSE ILE     PTCLDY    63  57  82 S12       30.02F
HILLSDALE      PTCLDY    51  51  98 CALM      30.03F
HOWELL         PTCLDY    54  52  90 S8        30.01F

CITY           SKY/WX    TMP DP  RH WIND       PRES   REMARKS
JACKSON        PTCLDY    54  50  86 S9        30.02F
LAMBERTVILLE   PTCLDY    52  50  93 S3        30.05F FOG
LANSING        PTCLDY    56  49  77 S10       29.99F
LAPEER         FAIR      54  50  87 S5        30.02F
MASON          PTCLDY    53  50  91 S7        30.00F
MONROE         FOG       50  48  93 S3        30.02F VSB 3/4
MT. CLEMENS    MOCLDY    54  54 100 S3        30.01F
PONTIAC        PTCLDY    55  51  86 S5        30.02F
PORT HOPE        N/A     56  50  80 S8G17     29.95F
PORT HURON     MOCLDY    48  48 100 CALM      30.03F FOG
TRI CITIES     PTCLDY    57  50  77 S14       29.97F
TROY           PTCLDY    56  51  84 CALM      30.05S
SAGINAW HB     PTCLDY    55  50  82 S10       29.97F
$$
MIZ043>046-050>051-056>058-064>065-071>073-077>080-200600-
SOUTHWEST LOWER MICHIGAN

CITY           SKY/WX    TMP DP  RH WIND       PRES   REMARKS
BATTLE CREEK   PTCLDY    58  46  64 S12       30.00F
BENTON HARBOR  CLEAR     60  47  61 S10       29.96F
BIG RAPIDS     CLEAR     60  51  71 S10G16    29.92F
COLDWATER      PTCLDY    56  48  74 S5        30.01F
FREMONT        FAIR      60  46  58 S9        29.92F
HOLLAND        PTCLDY    60  49  66 S9        29.96F
GRAND RAPIDS   MOCLDY    62  48  60 S12       29.97F
IONIA          FAIR      60  48  64 S9        29.96F
KALAMAZOO      CLEAR     58  47  66 S8        29.99F
LUDINGTON      PTCLDY    69  52  54 S22G31    29.89S
MARSHALL       PTCLDY    56  46  68 S7        30.00F
MOUNT PLEASANT PTCLDY    56  49  77 S6        29.94F
MUSKEGON       CLEAR     65  50  58 S22G28    29.93F
SOUTH HAVEN    PTCLDY    62  49  62 S8        29.96F
$$
MIZ016>042-200600-
NORTHERN LOWER MICHIGAN

CITY           SKY/WX    TMP DP  RH WIND       PRES   REMARKS
ALPENA         CLOUDY    59  47  64 S12       29.89S
BEAVER ISLAND  CLOUDY    67  51  57 SW20G29   29.78F
BELLAIRE       CLOUDY    65  49  56 S13       29.85F
CADILLAC       PTCLDY    59  49  71 S12G20    29.90F
CHARLEVOIX     CLOUDY    65  50  58 S15G23    29.85R
FRANKFORT      CLOUDY    67  47  48 S17G24    29.85F
GAYLORD        MOCLDY    60  48  64 S16G23    29.87F
GRAYLING       MOCLDY    60  49  65 S9G17     29.90S
HARBOR SPRINGS MOCLDY    64  52  64 SW9       29.84R
HOUGHTON LAKE  MOCLDY    58  49  72 S8        29.92F
MANISTEE       MOCLDY    63  48  59 S7        29.88S
OSCODA         MOCLDY    58  50  76 SW13G22   29.93S
PELLSTON       CLOUDY    63  51  65 SW10G21   29.82F
ROGERS CITY    CLOUDY    58  53  83 S7        29.86F
TRAVERSE CITY  CLOUDY    65  47  52 S8        29.84S
$$
MIZ007>008-015-200600-
EASTERN UPPER MICHIGAN

CITY           SKY/WX    TMP DP  RH WIND       PRES   REMARKS
KINROSS        CLOUDY    57  55  94 S9        29.78F
MACKINAC ISLAN CLOUDY    61  53  75 S10G17    29.80F
NEWBERRY       CLOUDY    62  52  70 S21G35    29.74F
S. S. MARIE    LGT RAIN  56  53  90 SE7       29.78F
$$
MIZ004>006-011>014-085-200600-
CENTRAL UPPER MICHIGAN

CITY           SKY/WX    TMP DP  RH WIND       PRES   REMARKS
MANISTIQUE     CLOUDY    60  55  83 SW14G25   29.75F
ESCANABA       CLOUDY    61  54  77 SW15G23   29.74F
MENOMINEE      CLOUDY    64  52  63 SW12G21   29.75F
SAWYER-GWINN   CLOUDY    61  53  74 S9        29.72S
$$
MIZ001>003-009>011-084-200600-
WESTERN UPPER MICHIGAN

CITY           SKY/WX    TMP DP  RH WIND       PRES   REMARKS
IRON MOUNTAIN  CLOUDY    65  52  62 S8        29.72S
HOUGHTON       CLOUDY    63  57  81 W9        29.63F
COPPER HARBOR    N/A     65  57  75 VRB6      29.61S
IRONWOOD       CLOUDY    66  61  82 SW13G18   29.62F
$$

ABBREVIATIONS USED IN REMARKS
   TC - TEMPERATURE IN CELSIUS
  WCI - WIND CHILL INDEX
   HX - HEAT INDEX
  VSB - VISIBILITY



USA.gov is the U.S. government's official web portal to all federal, state and local government web resources and services.